Home > Weather > Annapolis > Past weeks

Flag for USA Past Weather in Annapolis, Maryland, USA — Yesterday and Last 2 Weeks

Now
73 °F

Mostly cloudy.


Feels Like: 69 °F
Forecast: 71 / 81 °F
Wind: No wind

Location: Annapolis - United States Naval Academy

Current Time: Jun 28, 2016 at 5:40:58 AM

Latest Report: Jun 28, 2016 at 4:54 AM


Visibility: 9 mi

Pressure: 29.92 "Hg

Humidity: 97%

Dew Point: 72 °F

Location of AnnapolisLocation

Past Weather in Annapolis — Graph

°F

Annapolis Temperature Yesterday

Maximum temperature yesterday: 82 °F (at 2:54 PM)
Minimum temperature yesterday: 68 °F (at 3:54 AM)
Average temperature yesterday: 75 °F

High & Low Weather Summary for the Past Weeks

 TemperatureHumidityPressure
High88 °F (Jun 21, 11:54 AM)97% (Jun 22, 1:54 AM)30.35 "Hg (Jun 22, 1:54 AM)
Low62 °F (Jun 15, 3:54 AM)29% (Jun 18, 2:54 PM)29.69 "Hg (Jun 16, 5:54 PM)
Average74 °F69%30.00 "Hg
* Reported Jun 13 3:54 AM — Jun 28 3:54 AM, Annapolis, Weather by CustomWeather, © 2016

Note: Actual official high and low records may vary slightly from our data, if they occured in-between our weather recording intervals... More about our weather records

Advertising

Annapolis Weather History for the Previous 24 Hours

Scroll right to see more
 ConditionsComfort  
Time TempWeatherWind HumidityBarometerVisibility
3:54 AM
Tue, Jun 28
73 °FLight rain. Low clouds.7 mph97%29.93 "Hg7 mi
2:54 AM73 °FLight rain. Overcast.6 mph94%29.93 "Hg9 mi
1:54 AM74 °FLight rain. Mostly cloudy.7 mph91%29.95 "Hg10 mi
12:54 AM74 °FHeavy rain. Fog.3 mph91%29.97 "Hg1 mi
11:54 PM
Mon, Jun 27
76 °FLight rain. Mostly cloudy.10 mph82%29.96 "Hg10 mi
10:54 PM77 °FPassing clouds.17 mph79%29.97 "Hg9 mi
9:54 PM78 °FMostly cloudy.14 mph71%29.98 "Hg10 mi
8:54 PM78 °FOvercast.10 mph64%29.97 "Hg10 mi
7:54 PM78 °FMostly cloudy.9 mph64%29.98 "Hg10 mi
6:54 PM79 °FMostly cloudy.13 mph62%29.98 "Hg10 mi
5:54 PM79 °FPassing clouds.13 mph72%29.97 "Hg10 mi
4:54 PM80 °FScattered clouds.16 mph64%29.97 "Hg10 mi
3:54 PM81 °FPartly sunny.14 mph62%29.99 "Hg10 mi
2:54 PM82 °FSunny.12 mph60%30.01 "Hg10 mi
1:54 PM79 °FSunny.16 mph69%30.03 "Hg10 mi
12:54 PM77 °FSunny.16 mph74%30.05 "Hg10 mi
11:54 AM77 °FWarm.16 mph71%30.07 "Hg10 mi
10:54 AM76 °FSunny.N/A74%30.08 "Hg10 mi
9:54 AM76 °FPassing clouds.N/A67%30.09 "Hg10 mi
8:54 AM74 °FScattered clouds.7 mph69%30.11 "Hg10 mi
7:54 AM72 °FSunny.9 mph78%30.09 "Hg10 mi
6:54 AM69 °FSunny.6 mph90%30.10 "Hg10 mi
5:54 AM68 °FClear.No wind90%30.11 "Hg10 mi
Weather by CustomWeather, © 2016

See weather overviewHow to use our weather pages